Regional Weather Roundup
Issued by NWS New Orleans/Baton Rouge, LA

Home | Current Version | Previous Version | Text Only | Print | Product List | Glossary On
Versions: 1 2 3 4 5 6 7 8 9 10 11 12 13 14 15 16 17 18 19 20 21 22 23 24 25 26 27 28 29 30 31 32 33 34 35 36 37 38 39 40 41 42 43 44 45 46 47 48 49 50
648
ASUS44 KLIX 271010
RWRLIX
NEW ORLEANS REGIONAL WEATHER ROUNDUP
NATIONAL WEATHER SERVICE NEW ORLEANS LA
400 AM CST THU NOV 27 2014

NOTE: "FAIR" INDICATES FEW OR NO CLOUDS BELOW 12,000 FEET WITH NO
      SIGNIFICANT WEATHER AND/OR OBSTRUCTIONS TO VISIBILITY.
      SKY/WX - SKY CONDITION AND SIGNIFICANT WEATHER.
      TMP - AIR TEMPERATURE.     DP    - DEWPOINT TEMPERATURE.
      RH  - RELATIVE HUMIDITY.   PRES  - PRESSURE.
      HI  - HEAT INDEX.          WCI   - WIND CHILL INDEX.

*  THESE STATIONS ARE NOT NWS OR FAA STATIONS AND ARE NOT UNDER
   NWS QUALITY CONTROL.

LAZ038-040-048-061>063-065>067-069-271100-
SOUTHEAST LOUISIANA

CITY           SKY/WX    TMP DP  RH WIND       PRES   REMARKS
N.O. AUDUBON     N/A     54  47  78 MISG        N/A
N.O. INTL ARPT CLEAR     53  46  77 NW8       30.33R
N.O. LAKEFRONT CLEAR     56  47  71 NW14      30.33R
N.O. DOWNTOWN*   N/A     55  43  62 N3        30.33R
SLIDELL        CLEAR     47  42  83 CALM      30.32R
BATON ROUGE    CLEAR     42  40  92 W3        30.35R
BOOTHVILLE     CLEAR     56  49  77 NW10      30.32R
BELLE CHASSE   CLEAR     54  44  69 NW5       30.32R
BOGALUSA*        N/A     39  35  85 CALM      30.33S
NEW ROADS*       N/A     41  39  90 W3        30.36R
GONZALES*        N/A     47  47 100 CALM      30.34R
HAMMOND*       CLEAR     41  37  87 CALM      30.35S
HOUMA*         CLEAR     52  46  79 NW5       30.33R
PORT FOURCHON* SUNNY     57  50  77 NW12      30.36R

$$

MSZ070-080>082-271100-
SOUTHERN MISSISSIPPI

CITY           SKY/WX    TMP DP  RH WIND       PRES   REMARKS
MCCOMB         CLEAR     45  34  65 NW7       30.32R
GULFPORT       CLEAR     44  42  93 W3        30.31R
BILOXI         CLEAR     49  45  85 VRB2      30.31R
PASCAGOULA     CLEAR     47  42  83 W3        30.31R

$$

COASTAL OBSERVATIONS
LAKE AND NEARSHORE STATIONS

STATION/POSITION TIME  TEMP    WIND        PRES    WAVE
                       AIR SEA DIR/SP/G            HT/PER
                 (UTC) (F)     (DEG/KT/KT) (MB)    (FT/S)
PASCAGOULA       1000   51     310/  7/ 11 1025.6
WAVELAND YACHT   1000   51     300/  8/ 10 1025.7
GRAND ISLE       1000   58 59  330/ 13/ 18 1026.9
SOUTHWEST PASS   1000   64                 1026.4
NEW CANAL        1000   56 54  340/  1/  3 1027.3
SHELL BEACH      1000   56 52  320/ 15/ 18 1026.3

OFFSHORE STATIONS

STATION/POSITION TIME  TEMP    WIND        PRES    WAVE
                       AIR SEA DIR/SP/G            HT/PER
                 (UTC) (F)     (DEG/KT/KT) (MB)    (FT/S)
64 S DAUPHIN ISL 0941   64 70  320/ 23/ 31 1025.8    7/ 6

$$




USA.gov is the U.S. government's official web portal to all federal, state and local government web resources and services.